Welcome to the New NWS' Forecast!
Most changes are behind the scenes, but click here for differences you might notice.
Latest weather observations around

Kansas City, Kansas City Downtown Airport (KMKC)

Using English Units (Switch to International System of Units)
Date/ Time (CDT) Wind (mph) Vis. (mi) Weather Sky Cond. Temp (°F) Rel. Humidity Wind Chill (°F) Heat Index (°F) Pressure Precip. (in)
Air Dwpt 6 hour Altimeter (inHg) Sea level (inHg) 1 hr 3 hr 6 hr
Max Min
Jun 25 00:54 5 10 Clear CLR 69 49     49%     30.2 30.18      
Jun 24 23:54 Calm 10 Clear CLR 71 50     47%   70 30.19 30.17      
Jun 24 22:54 6 10 Clear CLR 71 48     44%   70 30.18 30.16      
Jun 24 21:54 6 10 Clear CLR 73 47     39%   72 30.17 30.15      
Jun 24 20:54 W 3 10 Clear CLR 75 44     33%   74 30.15 30.13      
Jun 24 19:54 5 10 Clear CLR 76 42     30%   75 30.15 30.13      
Jun 24 18:54 6 10 Clear CLR 79 44     29%   78 30.14 30.13      
Jun 24 17:54 W 10 10 Clear CLR 79 43     28%   78 30.15 30.13      
Jun 24 16:54 11 10 Clear CLR 79 44     29%   78 30.17 30.15      
Jun 24 15:54 W 8 10 Clear CLR 79 42     27%   78 30.18 30.16      
Jun 24 14:54 NNW 11 10 Clear CLR 79 40     25%   78 30.2 30.18      
Jun 24 13:54 9 10 Clear CLR 78 43     29%   77 30.21 30.19      
Jun 24 12:54 Calm 10 Clear CLR 77 43     30%   76 30.22 30.2      
Jun 24 11:54 8 10 Clear CLR 76 41     29%   75 30.23 30.21      
Jun 24 10:59 8 10 Clear CLR 74 39     28%   72 30.23        
Jun 24 10:54   10 Clear CLR 74 41     31%   72 30.23 30.21      
Jun 24 09:54 6 10 Clear CLR 73 42     33%   72 30.22 30.2      
Jun 24 08:54 N 6 10 Clear CLR 70 49     47%     30.2 30.18      
Jun 24 07:54 NNW 5 10 Clear CLR 66 53     63%     30.17 30.16      
Jun 24 06:54 NNW 6 10 Clear CLR 63 54     72%     30.14 30.13      
Jun 24 05:54 6 10 Clear CLR 61 55     81%     30.12 30.11      
Jun 24 04:54 3 10 Clear CLR 62 55     78%     30.11 30.09      
Jun 24 02:54 5 10 Clear CLR 64 55     73%     30.1 30.08      
Jun 24 01:54 NNW 3 10 Clear CLR 65 56     73%     30.09 30.07      
Jun 24 00:54 NNW 7 10 Clear CLR 67 54     63%     30.09 30.07      
Jun 23 23:54 5 10 Clear CLR 68 55     63%     30.08 30.06      
Jun 23 22:54 Calm 10 Clear CLR 71 54     55%   70 30.07 30.05      
Jun 23 21:54 NNW 7 10 Clear CLR 72 53     51%   71 30.05 30.02      
Jun 23 20:54 NNW 9 10 Clear CLR 73 54     51%   72 30.02 29.99      
Jun 23 19:54 14 10 Clear CLR 75 53     46%   74 29.99 29.97      
Jun 23 18:54 11 10 Clear CLR 79 52     39%   78 29.97 29.94      
Jun 23 17:54   10 Clear CLR 80 51     36%   79 29.94 29.92      
Jun 23 16:54 N 9 10 Clear CLR 81 52     37%   80 29.94 29.92      
Jun 23 16:38 NNW 13 10 Clear CLR 81 52     37%   80 29.94        
Jun 23 15:54 NNW 15 10 Clear CLR 82 50     33%   81 29.93 29.91      
Jun 23 14:54 NNW 17 10 Clear CLR 82 52     35%   81 29.93 29.9      
Jun 23 13:54 N 14 10 Clear CLR 83 54     37%   82 29.91 29.88      
Jun 23 12:54 NNW 10 10 Clear CLR 84 57     40%   83 29.9 29.87      
Jun 23 11:54 N 9 10 Clear CLR 82 57     43%   82 29.89 29.86      
Jun 23 10:54 N 10 10 Mostly Cloudy BKN100 82 61     49%   83 29.88 29.85      
Jun 23 09:54 14 10 Cloudy OVC100 78 64     62%   79 29.86 29.83      
Jun 23 08:54   10 Mostly Cloudy FEW019 BKN090 BKN100 75 67     76%   76 29.83 29.8      
Jun 23 08:43 10 10 Cloudy SCT020 BKN085 OVC100 75 68     79%   76 29.83        
Jun 23 07:54 11 10 Cloudy BKN018 OVC065 74 67     79%   75 29.8 29.77      
Jun 23 07:52 N 11 10 Cloudy BKN020 OVC065 73 66     78%   74 29.8        
Jun 23 06:54 10 10 Cloudy OVC060 74 66     76%   75 29.77 29.74      
Jun 23 05:54 15 10 Mostly Cloudy FEW018 BKN050 75 67     76%   76 29.72 29.7      
Jun 23 05:47   10 Cloudy FEW016 SCT023 OVC050 76 67     74%   77 29.72        
Jun 23 05:10   10 Mostly Cloudy BKN017 BKN027 79 73     82%   82 29.7        
Jun 23 04:54 NNW 9 10 Mostly Cloudy FEW021 SCT026 BKN055 79 74     85%   83 29.7 29.67      
Jun 23 03:54 Calm 10 Mostly Cloudy SCT080 BKN100 80 73     79%   84 29.68 29.65      
Jun 23 02:54 5 10 Mostly Clear FEW095 79 74     85%   83 29.68 29.65      
Jun 23 01:54 3 10 Clear CLR 79 74     85%   83 29.69 29.67      
Jun 23 00:54 6 10 Clear CLR 80 74     82%   85 29.71 29.68      
Jun 22 23:54 S 8 10 Clear CLR 82 74     77%   88 29.69 29.66      
Jun 22 22:54 S 9 10 Cloudy OVC050 83 74     74%   89 29.68 29.65      
Jun 22 21:54 S 6 10 Partly Cloudy SCT047 82 74     77%   88 29.69 29.66      
Jun 22 20:54 S 7 10 Clear CLR 84 73     70%   90 29.66 29.64      
Jun 22 19:54 S 8 10 Clear CLR 86 72     63%   92 29.65 29.62      
Jun 22 18:54 S 15 10 Partly Cloudy SCT039 87 72     61%   94 29.63 29.6      
Jun 22 18:11 S 9 10 Partly Cloudy SCT039 87 72     61%   94 29.64        
Jun 22 17:54 16 10 Mostly Cloudy BKN039 87 72     61%   94 29.65 29.62      
Jun 22 16:54 S 14 10 Partly Cloudy SCT040 87 72     61%   94 29.66 29.63      
Jun 22 15:54 10 10 Mostly Cloudy BKN036 87 72     61%   94 29.67 29.64      
Jun 22 14:54 S 13 10 Mostly Cloudy BKN036 87 72     61%   94 29.68 29.65      
Jun 22 13:54 S 16 10 Mostly Clear FEW036 87 72     61%   94 29.7 29.67      
Jun 22 12:54 S 15 10 Partly Cloudy SCT035 86 71     61%   92 29.71 29.69      
Jun 22 11:54 14 10 Clear CLR 86 71     61%   92 29.73 29.7      
Jun 22 10:54 14 10 Clear CLR 84 70     63%   88 29.74 29.71      
Jun 22 09:54 S 13 10 Clear CLR 82 70     67%   86 29.75 29.72      
Jun 22 08:54 10 10 Clear CLR 80 68     67%   83 29.76 29.74      
Jun 22 07:54 S 9 10 Clear CLR 77 67     71%   78 29.78 29.75      
Jun 22 06:54 S 10 10 Clear CLR 74 66     76%   75 29.78 29.75      
Jun 22 05:54 S 11 10 Clear CLR 73 65     76%   74 29.8 29.77      
Jun 22 04:54 S 9 10 Clear CLR 73 64     73%   73 29.8 29.78      
Jun 22 03:54 S 8 10 Clear CLR 75 63     66%   75 29.81 29.78      
Jun 22 02:54 S 8 10 Clear CLR 75 62     64%   75 29.83 29.8      
Jun 22 01:54 S 9 10 Clear CLR 77 62     60%   77 29.83 29.8      
Jun 22 00:54 9 10 Clear CLR 79 62     56%   79 29.84 29.8      
Jun 21 23:54 S 14 10 Clear CLR 80 64     58%   82 29.83 29.8      
Jun 21 22:54 S 13 10 Clear CLR 82 66     58%   84 29.82 29.79      
Jun 21 21:54 S 7 10 Clear CLR 82 65     56%   84 29.8 29.77      
Jun 21 20:54 10 10 Clear CLR 85 64     50%   86 29.79 29.76      
Jun 21 19:54 S 17 10 Clear CLR 87 64     46%   88 29.81 29.78      
Jun 21 18:54 S 15 10 Clear CLR 88 66     48%   90 29.81 29.78      
Jun 21 17:54   10 Clear CLR 91 66     44%   94 29.82 29.79      
Jun 21 16:54 S 15 10 Clear CLR 91 63     39%   92 29.84 29.81      
Jun 21 15:54 15 10 Clear CLR 93 62     36%   94 29.85 29.82      
Jun 21 14:54 9 10 Clear CLR 93 65     40%   95 29.84 29.81      
Jun 21 13:54 16 10 Clear CLR 92 65     41%   94 29.86 29.83      
Jun 21 12:54 S 18 10 Clear CLR 88 63     43%   89 29.86 29.83      
Jun 21 11:54   10 Clear CLR 90 64     42%   91 29.87 29.84      
Jun 21 10:54 14 10 Clear CLR 88 66     48%   90 29.88 29.85      
Jun 21 09:54 14 10 Clear CLR 85 66     53%   87 29.9 29.86      
Jun 21 08:54 10 10 Clear CLR 82 66     58%   84 29.91 29.88      
Jun 21 07:54 9 10 Clear CLR 81 65     58%   83 29.89 29.86      
Jun 21 06:54 9 10 Clear CLR 78 64     62%   79 29.89 29.86      
Jun 21 05:54 10 10 Clear CLR 78 63     60%   78 29.89 29.86      
Jun 21 04:54 13 10 Clear CLR 79 64     60%   79 29.89 29.86      
Jun 21 03:54 10 10 Clear CLR 77 66     69%   78 29.89 29.86      
Jun 21 02:54 10 10 Clear CLR 78 67     69%   79 29.89 29.86      
Jun 21 01:54 9 10 Clear CLR 79 67     67%   80 29.9 29.87      
Jun 21 00:54 8 10 Partly Cloudy SCT090 80 67     64%   82 29.91 29.88      
Jun 20 23:54 7 10 Cloudy OVC090 82 68     63%   85 29.93 29.9      
Jun 20 22:54 7 10 Clear CLR 82 66     58%   84 29.93 29.9      
Jun 20 20:54 6 10 Clear CLR 86 64     48%   87 29.9 29.87      
Jun 20 19:54 7 10 Clear CLR 88 64     45%   89 29.89 29.86      
Jun 20 18:54 8 10 Clear CLR 90 64     42%   91 29.88 29.85      
Jun 20 17:54 10 10 Clear CLR 91 65     42%   93 29.9 29.87      
Jun 20 17:39 10 10 Mostly Clear FEW002 91 66     44%   94 29.9        
Jun 20 16:54 9 10 Clear CLR 91 65     42%   93 29.91 29.89      
Jun 20 15:54 13 10 Clear CLR 91 65     42%   93 29.93 29.91      
Jun 20 14:54 9 10 Clear CLR 90 65     44%   92 29.95 29.92      
Jun 20 13:54 W 10 10 Clear CLR 88 64     45%   89 29.96 29.94      
Jun 20 12:54 11 10 Clear CLR 87 64     46%   88 29.98 29.95      
Jun 20 11:54 11 10 Clear CLR 84 64     51%   85 30 29.98      
Jun 20 10:54 11 10 Clear CLR 81 63     54%   82 30.02 29.99      
Jun 20 09:54 10 10 Clear CLR 80 61     52%   81 30.03 30.01      
Jun 20 08:54 9 10 Clear CLR 78 61     56%   78 30.04 30.02      
Jun 20 07:54 10 10 Mostly Clear FEW120 74 62     66%   74 30.04 30.02      
Jun 20 06:54 7 10 Mostly Cloudy BKN120 72 62     71%   72 30.03 30      
Jun 20 05:54 7 10 Mostly Cloudy BKN120 70 63     78%     30.02 30      
Jun 20 04:54 3 10 Partly Cloudy SCT110 71 63     76%   71 30.02 30      
Jun 20 03:54 3 10 Clear CLR 71 63     76%   71 30.02 29.99      
Jun 20 02:54 7 10 Clear CLR 72 63     73%   72 30.02 29.99      
Jun 20 01:54 7 10 Clear CLR 70 64     81%     30.02 29.99      
Jun 20 00:54 8 10 Clear CLR 72 64     76%   72 30.02 29.99      
Jun 19 23:54 S 3 10 Clear CLR 75 64     69%   75 30.03 30.01      
Jun 19 22:54 3 10 Clear CLR 75 64     69%   75 30.03 30.01      
Jun 19 21:54 6 10 Mostly Cloudy BKN100 78 63     60%   78 30.02 29.99      
Jun 19 20:54 Calm 10 Mostly Cloudy BKN085 82 57     43%   82 30 29.97      
Jun 19 19:54 Calm 10 Mostly Cloudy BKN080 83 57     41%   82 29.99 29.97      
Jun 19 18:54 5 10 Clear CLR 85 57     39%   84 29.98 29.96      
Jun 19 16:54 9 10 Mostly Clear FEW070 FEW100 87 57     36%   86 29.98 29.95      
Jun 19 15:54 W 9 10 Mostly Clear FEW065 FEW100 86 60     42%   86 29.98 29.96      
Jun 19 13:54 10 10 Mostly Cloudy FEW060 BKN095 84 60     44%   84 29.99 29.97      
Jun 19 12:54 11 10 Partly Cloudy SCT100 85 61     45%   85 30 29.97      
Jun 19 11:54 17 10 Clear CLR 83 61     48%   83 30 29.97      
Jun 19 09:54 W 13 10 Clear CLR 77 57     50%   77 30.01 29.99      
Jun 19 08:54 9 10 Clear CLR 75 59     57%   75 30 29.98      
Jun 19 07:54 5 10 Clear CLR 69 59     70%     29.99 29.97      
Jun 19 06:54 6 10 Mostly Cloudy BKN110 68 58     70%     29.98 29.96      
Jun 19 03:54 3 10 Mostly Clear FEW120 67 62     84%     29.94 29.91      
Jun 19 01:54 Calm 10 Clear CLR 67 61     81%     29.92 29.9      
Jun 19 00:54 Calm 10 Clear CLR 68 61     78%     29.92 29.9      
Jun 18 21:54 Calm 10 Clear CLR 75 54     48%   74 29.91 29.89      
Jun 18 20:54 Calm 10 Clear CLR 77 51     40%   76 29.89 29.87      
Jun 18 19:54 N 7 10 Clear CLR 79 50     36%   78 29.89 29.86      
Jun 18 18:54 10 10 Clear CLR 80 48     33%   79 29.87 29.85      
Jun 18 17:54 13 10 Clear CLR 81 51     35%   80 29.86 29.84      
Jun 18 15:54 10 10 Clear CLR 82 55     40%   81 29.86 29.83      
Jun 18 14:54 NNW 15 10 Mostly Clear FEW065 82 54     38%   81 29.86 29.84      
Jun 18 13:54 NNW 11 10 Clear CLR 81 54     39%   81 29.86 29.84      
Jun 18 09:54 10 10 Clear CLR 73 60     64%   73 29.88 29.86      
Jun 18 08:54 6 10 Clear   70 61     73%     29.88 29.86      
Jun 18 07:54 3 10 Clear CLR 69 62     78%     29.86 29.84      
Jun 18 06:54 W 7 10 Clear CLR 68 63     84%     29.85 29.83     0
Jun 18 05:54 W 8 10 Partly Cloudy FEW060 SCT095 SCT110 68 64     87%     29.84 29.81 0    
Jun 18 03:54 W 3 10 Mostly Clear FEW080 69 66     90%     29.79 29.76 0 0  
Jun 18 02:54 W 5 10 Partly Cloudy SCT120 69 66     90%     29.81 29.78 0    
Jun 18 01:54 NNW 7 9 Light Rain FEW055 SCT080 OVC110 70 66     87%     29.82 29.8 0    
Jun 18 01:28 N 8 6 Light Rain SCT040 BKN110 71 65     81%   72 29.82   0    
Jun 18 01:12 10 10 Thunderstorms SCT038 SCT048 BKN070 73 65     76%   74 29.84   0    
Jun 18 00:54 7 10 Light Rain BKN034 BKN048 BKN110 73 65     76%   74 29.75 29.72 0   0
Jun 17 22:54 Calm 10 Mostly Clear FEW100 73 70     90%   74 29.71 29.68 0    
Jun 17 22:25 E 5 10 Cloudy OVC100 74 70     87%   75 29.7   0    
Jun 17 21:54 N 7 10 Thunderstorms and Rain FEW014 SCT080 OVC110 73 70     90%   74 29.69 29.67 0 0  
Jun 17 21:43 N 8 7 Thunderstorms and Rain SCT013 BKN075 OVC100 74 70     87%   75 29.72   0    
Jun 17 21:30   3 Thunderstorms and Rain and Fog/Mist BKN013 BKN031 OVC110 74 72     94%   75 29.74   0    
Notice The following observation data may not be complete
Jun 17 21:20   1.75 Thunderstorms and Heavy Rain and Fog/Mist SCT013 BKN060 OVC100   75      %     29.65   0    
Jun 17 21:04 NNW 9 10 Thunderstorms and Rain FEW060 SCT080 BKN095 86 76     72%   96 29.58   0    
Jun 17 20:54 W 6 10 Mostly Cloudy SCT060 BKN080 88 75     66%   98 29.6        
Jun 17 20:52 5 10 Partly Cloudy SCT060 88 75     66%   98 29.61        
Jun 17 19:54 3 10 Mostly Clear FEW055 88 75     66%   98 29.61 29.58      
Jun 17 17:54 NNW 6 10 Mostly Clear FEW040 FEW050 91 76     61%   103 29.6 29.57      
Jun 17 16:54 7 10 Mostly Clear FEW047 91 75     60%   102 29.6 29.57      
Jun 17 15:54 7 10 Mostly Cloudy SCT044 BKN050 90 75     62%   101 29.62 29.59      
Jun 17 14:54 W 9 10 Partly Cloudy SCT042 91 74     57%   101 29.62 29.59      
Jun 17 12:54 15 10 Clear CLR 89 73     59%   97 29.63 29.6      
Jun 17 10:54 10 10 Clear CLR 83 68     61%   86 29.65 29.62      
Jun 17 09:54 Calm 10 Clear CLR 78 69     74%   79 29.66 29.64      
Jun 17 08:54 3 10 Clear CLR 74 69     85%   75 29.67 29.64      
Jun 17 07:54 3 10 Clear CLR 71 67     87%   72 29.65 29.62      
Jun 17 06:54 S 10 10 Clear CLR 70 67     90%     29.64 29.62     0
Jun 17 05:54 8 10 Clear CLR 70 66     87%     29.66 29.63      
Jun 17 04:54   10 Clear CLR 70 66     87%     29.67 29.64      
Jun 17 02:54 7 10 Clear CLR 70 67     90%     29.65 29.62 0    
Jun 17 02:01 15 10 Mostly Clear FEW110 70 67     90%     29.68        
Jun 17 01:54 15 10 Mostly Clear FEW110 70 67     90%     29.67 29.64 0    
Jun 17 01:49 16 10 Mostly Clear FEW110 70 66     88%     29.67   0    
Jun 17 01:22 S 10 10 Thunderstorms and Rain SCT028 SCT090 BKN110 71 67     87%   72 29.68   0    
Jun 17 01:13 8 8 Thunderstorms and Rain BKN019 BKN100 OVC120 71 68     90%   72 29.67   0    
Jun 17 01:06   2.5 Thunderstorms and Heavy Rain and Fog/Mist FEW012 BKN023 OVC090 71 68     90%   72 29.67   0    
Jun 17 01:01   0.75 Thunderstorms and Heavy Rain and Fog/Mist FEW012 BKN018 OVC027 69 68     96%     29.67   0    
Jun 17 00:58   0.5 Thunderstorms and Heavy Rain and Fog BKN011 OVC027 69 68     96%     29.69   0    
Jun 17 00:54   0.5 Thunderstorms and Heavy Rain and Fog BKN008 BKN012 OVC027 70 69     97%     29.72 29.7 1   1
Jun 17 00:52   0.5 Thunderstorms and Heavy Rain and Fog BKN008 BKN012 OVC025 72 70     94%   73 29.72   1    
Jun 17 00:49   0.75 Thunderstorms and Heavy Rain and Fog/Mist BKN010 OVC025 72 70     94%   73 29.75   1    
Jun 17 00:45   1.25 Thunderstorms and Rain and Fog/Mist SCT012 OVC025 71 68     90%   72 29.77   0    
Jun 17 00:43   2 Thunderstorms and Rain and Fog/Mist FEW011 BKN025 OVC033 71 68     90%   72     0    
Jun 17 00:25   10 Thunderstorms and Rain BKN025 BKN110 72 67     84%   73 29.65   0    
Jun 17 00:16 NE 16 10 Thunderstorms and Rain SCT025 SCT080 SCT120 73 67     81%   74 29.66   0    
Jun 16 23:42 10 10 Mostly Clear FEW110 86 75     70%   95 29.64        
Jun 16 23:29 18 10 Mostly Clear FEW090 86 75     70%   95 29.63        
Jun 16 23:14 S 18 10 Thunderstorms FEW090 86 75     70%   95 29.62        
Jun 16 22:54 S 14 10 Partly Cloudy SCT100 86 75     70%   95 29.64 29.61      
Jun 16 21:54 S 13 10 Mostly Cloudy BKN120 86 75     70%   95 29.63 29.6      
Jun 16 20:54 S 11 10 Clear CLR 86 74     67%   94 29.62 29.59      
Jun 16 18:54 S 16 10 Partly Cloudy SCT041 88 74     63%   97 29.65 29.62      
Jun 16 17:54 S 18 10 Clear CLR 89 73     59%   97 29.68 29.65      
Jun 16 16:54 SSE 14 10 Clear CLR 91 72     54%   99 29.7 29.67      
Jun 16 15:54 S 10 10 Clear CLR 91 71     52%   98 29.71 29.69      
Jun 16 14:54 10 10 Clear CLR 91 70     50%   97 29.73 29.7      
Jun 16 13:54 11 10 Clear CLR 91 69     49%   96 29.76 29.72      
Jun 16 12:54 S 6 10 Clear CLR 88 65     47%   90 29.79 29.76      
Jun 16 11:54 S 7 10 Clear CLR 86 65     50%   88 29.8 29.77      
Jun 16 10:54 7 10 Mostly Clear FEW055 82 61     49%   83 29.82 29.8      
Jun 16 09:54 6 10 Clear CLR 81 62     53%   82 29.83 29.81      
Jun 16 08:54 3 10 Clear CLR 78 63     60%   78 29.84 29.81      
Jun 16 07:54 6 10 Clear CLR 75 65     71%   76 29.84 29.81      
Jun 16 06:54 Calm 10 Clear CLR 72 65     79%   73 29.84 29.81      
Jun 16 05:54 3 10 Clear CLR 70 65     84%     29.83 29.81      
Jun 16 04:54 3 10 Clear CLR 71 65     81%   72 29.86 29.83      
Jun 16 03:54 3 10 Clear CLR 72 64     76%   72 29.86 29.84      
Jun 16 02:54 NE 10 10 Clear CLR 75 62     64%   75 29.83 29.8      
Jun 16 01:54 3 10 Clear CLR 80 57     45%   80 29.79 29.76      
Jun 16 00:54   10 Clear CLR 85 53     34%   83 29.74 29.71     0
Jun 15 23:54   10 Partly Cloudy FEW060 FEW080 SCT110 83 54     37%   82 29.77 29.74 0    
Jun 15 22:54   10 Mostly Cloudy FEW050 FEW095 BKN120 78 60     54%   78 29.82 29.79 0    
Jun 15 22:16   10 Light Rain BKN110 77 66     69%   78 29.81   0    
Jun 15 22:01 14 10 Thunderstorms and Rain FEW070 FEW090 BKN110 75 68     79%   76 29.81   0    
Notice The following observation data may not be complete
Jun 15 21:54 14 9 Thunderstorms and Rain FEW045 SCT085 BKN110   69      %     29.81 29.78 0 0  
Notice The following observation data may not be complete
Jun 15 21:45 W 11 6 Thunderstorms and Rain FEW038 SCT050 BKN075   67      %     29.8   0    
Jun 15 21:37   4 Heavy Rain FEW040 BKN050 OVC100 75 67     76%   76 29.83   0    
Jun 15 21:30   10 Cloudy FEW035 BKN044 OVC100 80 65     60%   82 29.82        
Jun 15 20:54 13 10 Mostly Clear FEW039 87 74     65%   95 29.78 29.75      
Jun 15 19:54 S 6 10 Clear CLR 88 74     63%   97 29.74 29.72      
Jun 15 18:54 S 13 10 Clear CLR 89 74     61%   98 29.77 29.74      
Jun 15 16:54 10 10 Clear CLR 93 73     52%   102 29.82 29.79      
Jun 15 14:54 S 9 10 Mostly Clear FEW047 93 74     54%   103 29.85 29.82      
Jun 15 11:54 11 10 Clear CLR 88 71     57%   94 29.9 29.87      
Jun 15 10:54 8 10 Clear CLR 85 70     61%   89 29.91 29.88      
Jun 15 09:54 9 10 Clear CLR 81 68     65%   84 29.92 29.88      
Jun 15 08:54 S 8 10 Clear CLR 78 68     71%   79 29.91 29.88      
Jun 15 07:54 5 10 Clear CLR 77 66     69%   78 29.9 29.87      
Jun 15 06:54 8 10 Clear CLR 70 64     81%     29.89 29.86     0
Jun 15 05:54 9 10 Clear CLR 70 64     81%     29.89 29.86      
Jun 15 04:54 3 10 Clear CLR 73 63     71%   73 29.87 29.85      
Jun 15 03:54 Calm 10 Clear CLR 72 67     84%   73 29.86 29.83   0  
Jun 15 02:54 5 10 Clear CLR 72 66     82%   73 29.81 29.78      
Jun 15 01:43 8 10 Clear CLR 71 65     81%   72 29.86   0    
Jun 15 01:21 6 10 Mostly Cloudy FEW060 SCT095 BKN110 70 63     78%     29.85   0    
Jun 15 00:54   6 Thunderstorms and Rain FEW029 SCT040 BKN080 71 63     76%   71 29.87 29.84 0   0
Jun 15 00:52   5 Thunderstorms and Rain FEW029 SCT040 BKN080 72 64     78%   72 29.87   0    
Jun 15 00:45   5 Thunderstorms and Rain FEW037 SCT047 BKN090 76 62     62%   76 29.88   0    
Jun 15 00:25 11 10 Clear CLR 83 74     74%   89 29.83        
Jun 15 00:13 11 10 Clear CLR 83 74     74%   89 29.83        
Jun 14 23:54 11 10 Clear CLR 83 74     74%   89 29.82 29.78      
Jun 14 22:54 S 10 10 Partly Cloudy SCT050 84 74     72%   91 29.81 29.78      
Jun 14 20:54 8 10 Mostly Clear FEW080 87 74     65%   95 29.79 29.76      
Jun 14 19:54 S 6 10 Partly Cloudy SCT039 87 76     70%   98 29.78 29.75      
Jun 14 18:54 16 10 Partly Cloudy SCT041 SCT048 88 75     66%   98 29.77 29.74      
Jun 14 17:54 14 10 Mostly Clear FEW048 88 74     63%   97 29.77 29.74      
Jun 14 16:54 17 10 Partly Cloudy SCT039 89 74     61%   98 29.79 29.76      
Jun 14 15:54 15 10 Mostly Cloudy FEW035 FEW048 BKN055 89 74     61%   98 29.81 29.78      
Jun 14 14:54 17 10 Mostly Cloudy SCT037 SCT049 BKN060 87 73     63%   95 29.82 29.79      
Jun 14 13:54   10 Mostly Cloudy SCT042 SCT050 BKN065 88 72     59%   95 29.82 29.79      
Jun 14 12:54 S 16 10 Partly Cloudy SCT035 89 73     59%   97 29.83 29.8     0
Jun 14 11:54 8 10 Cloudy BKN034 OVC070 86 74     67%   94 29.86 29.83      
Jun 14 10:54 11 10 Clear CLR 83 71     67%   88 29.84 29.82      
Jun 14 09:54 5 10 Clear CLR 79 66     65%   80 29.85 29.82 0 0  
Jun 14 08:54   10 Mostly Clear FEW100 77 64     64%   77 29.85 29.82      
Jun 14 07:54 3 10 Mostly Clear FEW085 FEW110 76 64     67%   76 29.77 29.75 0    
Jun 14 06:54   10 Light Rain SCT110 75 62     64%   75 29.84 29.82 0   0
Jun 14 05:54 16 10 Mostly Clear FEW025 80 72     76%   84 29.83 29.8      
Jun 14 04:54 S 15 10 Clear CLR 80 72     76%   84 29.8 29.77      
Jun 14 03:54 S 17 10 Mostly Clear FEW038 81 72     74%   85 29.8 29.77      
Jun 14 02:54 S 13 10 Partly Cloudy SCT055 81 71     72%   85 29.81 29.78      
Jun 14 01:54 S 14 10 Mostly Clear FEW039 81 71     72%   85 29.82 29.79      
Jun 14 00:54 S 14 10 Clear CLR 82 71     69%   86 29.82 29.78      
Jun 13 23:54 S 14 10 Clear CLR 83 70     65%   87 29.81 29.78      
Jun 13 22:54 S 18 10 Clear CLR 83 69     63%   87 29.78 29.75      
Jun 13 21:54 S 13 10 Clear CLR 84 69     61%   88 29.78 29.75      
Jun 13 20:54 S 18 10 Clear CLR 85 69     59%   89 29.77 29.74      
Jun 13 18:54 S 20 10 Clear and Windy CLR 88 68     52%   92 29.78 29.75      
Jun 13 17:54 S 20 10 Mostly Clear and Windy FEW050 89 67     48%   92 29.8 29.77      
Jun 13 16:54 S 20 10 Clear and Windy CLR 91 68     47%   95 29.8 29.77      
Jun 13 15:54   10 Mostly Clear FEW048 90 69     50%   95 29.82 29.78      
Jun 13 14:54   10 Partly Cloudy SCT046 89 70     53%   94 29.82 29.79      
Jun 13 13:54 S 17 10 Mostly Clear FEW042 90 71     54%   96 29.83 29.8      
Jun 13 12:54 S 21 10 Mostly Cloudy and Windy BKN042 87 71     59%   93 29.86 29.83      
Jun 13 11:54   10 Mostly Cloudy BKN035 86 72     63%   92 29.86 29.83      
Jun 13 10:54 S 16 10 Cloudy BKN033 OVC041 84 72     67%   90 29.87 29.83      
Jun 13 09:54   10 Partly Cloudy SCT029 84 72     67%   90 29.87 29.84      
Jun 13 09:23 S 15 10 Partly Cloudy SCT024 82 72     72%   87 29.87        
Jun 13 08:54 S 18 10 Mostly Cloudy BKN020 81 73     77%   86 29.88 29.85      
Jun 13 08:27 S 17 10 Mostly Cloudy BKN018 80 73     79%   84 29.89        
Jun 13 06:54 S 9 10 Clear CLR 77 72     84%   78 29.87 29.84      
Jun 13 05:54 S 11 10 Clear CLR 77 72     84%   78 29.87 29.84      
Jun 13 04:54 S 11 10 Clear CLR 78 71     79%   79 29.87 29.84      
Jun 13 03:54 S 9 10 Mostly Clear FEW043 78 71     79%   79 29.88 29.85      
Jun 13 02:54 SSE 11 10 Clear CLR 80 70     71%   83 29.87 29.84      
Jun 13 01:54 SSE 13 10 Mostly Clear FEW049 81 70     69%   84 29.87 29.83      
Jun 13 00:54 S 10 10 Partly Cloudy SCT049 81 69     67%   84 29.86 29.83      
Jun 12 23:54 S 8 10 Clear CLR 82 69     65%   85 29.86 29.83      
Jun 12 22:54 S 9 10 Clear CLR 83 68     61%   86 29.85 29.82      
Jun 12 21:54 S 8 10 Clear CLR 84 68     59%   87 29.84 29.81      
Jun 12 19:54 S 15 10 Clear CLR 87 67     51%   90 29.82 29.8      
Jun 12 18:54   10 Clear CLR 89 69     52%   94 29.82 29.79      
Jun 12 17:54 S 13 10 Mostly Clear FEW050 91 70     50%   97 29.82 29.8      
Jun 12 16:54 S 13 10 Mostly Clear FEW050 91 71     52%   98 29.85 29.82      
Jun 12 15:54 S 16 10 Mostly Clear FEW046 92 71     51%   99 29.86 29.83      
Jun 12 14:54 S 16 10 Mostly Clear FEW045 91 72     54%   99 29.85 29.82      
Jun 12 13:54 S 16 10 Clear CLR 91 73     56%   100 29.86 29.83      
Jun 12 12:54 S 17 10 Mostly Clear FEW038 89 73     59%   97 29.89 29.86      
Jun 12 11:54 11 10 Mostly Clear FEW035 87 72     61%   94 29.91 29.88      
Jun 12 10:54 S 17 10 Clear CLR 84 70     63%   88 29.91 29.88      
Jun 12 09:54 13 10 Clear CLR 83 70     65%   87 29.91 29.89      
Jun 12 08:54 S 17 10 Clear CLR 79 68     69%   80 29.91 29.88      
Jun 12 07:54 14 10 Clear CLR 77 66     69%   78 29.91 29.88      
Jun 12 06:54 S 9 10 Clear CLR 74 65     74%   74 29.92 29.89      
Jun 12 05:54 S 8 10 Clear CLR 73 65     76%   74 29.9 29.88      
Jun 12 04:54 S 9 10 Clear CLR 74 65     74%   74 29.89 29.86      
Jun 12 02:54 S 11 10 Clear CLR 76 66     71%   77 29.87 29.84      
Jun 12 01:54 11 10 Clear CLR 77 66     69%   78 29.88 29.85      
Jun 12 00:54 S 9 10 Clear CLR 78 67     69%   79 29.88 29.84      
Jun 11 23:54 10 10 Clear CLR 79 67     67%   80 29.87 29.83      
Jun 11 22:54 10 10 Clear CLR 81 67     62%   83 29.86 29.83      
Jun 11 21:54 S 14 10 Clear CLR 82 67     60%   85 29.83 29.8      
Jun 11 20:54 S 15 10 Clear   83 68     61%   86 29.81 29.78      
Jun 11 19:54 S 21 10 Clear and Windy CLR 85 68     57%   88 29.79 29.77      
Jun 11 18:54 S 17 10 Clear CLR 87 69     55%   91 29.79 29.76      
Jun 11 17:54   10 Mostly Clear FEW050 89 69     52%   94 29.79 29.76      
Jun 11 16:54 S 20 10 Clear and Windy CLR 91 69     49%   96 29.78 29.76      
Jun 11 15:54 S 22 10 Clear and Windy CLR 92 69     47%   97 29.79 29.76      
Jun 11 14:54 S 21 10 Clear and Windy CLR 91 69     49%   96 29.81 29.78      
Jun 11 13:54 S 17 10 Clear CLR 91 71     52%   98 29.81 29.78      
Jun 11 12:54 S 17 10 Clear CLR 89 70     53%   94 29.83 29.8      
Jun 11 11:54 S 15 10 Clear CLR 88 70     55%   93 29.83 29.8      
Jun 11 10:54 S 21 10 Clear and Windy CLR 84 68     59%   87 29.83 29.8      
Jun 11 09:54 S 20 10 Clear and Windy CLR 82 67     60%   85 29.84 29.81      
Jun 11 08:54 S 20 10 Clear and Windy CLR 79 66     65%   80 29.84 29.81      
Jun 11 07:54 S 16 10 Clear CLR 76 65     69%   76 29.83 29.8      
Jun 11 06:54 S 13 10 Clear CLR 74 65     74%   74 29.84 29.81      
Jun 11 05:54 S 17 10 Clear CLR 73 65     76%   74 29.83 29.8      
Jun 11 04:54 11 10 Clear CLR 74 65     74%   74 29.82 29.79      
Jun 11 03:54 10 10 Clear CLR 75 65     71%   76 29.81 29.78      
Jun 11 02:54 S 11 10 Clear CLR 76 66     71%   77 29.81 29.78      
Jun 11 01:54 15 10 Clear CLR 77 67     71%   78 29.81 29.78      
Jun 11 00:54 S 16 10 Clear CLR 78 67     69%   79 29.81 29.78      
Jun 10 23:54 S 16 10 Clear CLR 79 67     67%   80 29.8 29.78      
Jun 10 22:54 S 10 10 Clear CLR 80 68     67%   83 29.8 29.77      
Jun 10 21:54 14 10 Clear CLR 81 68     65%   84 29.77 29.75      
Jun 10 20:54 S 17 10 Clear CLR 82 68     63%   85 29.75 29.73      
Jun 10 19:54 S 20 10 Partly Cloudy and Windy SCT042 84 69     61%   88 29.74 29.72      
Jun 10 18:54 S 17 10 Mostly Clear FEW043 86 69     57%   90 29.73 29.7      
Jun 10 17:54   10 Mostly Clear FEW044 86 69     57%   90 29.73 29.7      
Jun 10 16:54   10 Mostly Cloudy BKN045 87 69     55%   91 29.73 29.71      
Jun 10 15:54   10 Clear CLR 89 70     53%   94 29.73 29.7      
Jun 10 14:54 S 20 10 Clear and Windy CLR 89 71     55%   95 29.74 29.71      
Jun 10 13:54 18 10 Clear CLR 88 70     55%   93 29.76 29.73      
Jun 10 12:54 20 10 Clear and Windy CLR 85 68     57%   88 29.78 29.75      
Jun 10 11:54 S 18 10 Clear CLR 83 67     59%   86 29.8 29.77      
Jun 10 10:54 20 10 Mostly Clear and Windy FEW034 80 65     60%   82 29.81 29.78      
Jun 10 09:54 20 10 Mostly Clear and Windy FEW033 78 64     62%   79 29.82 29.8      
Jun 10 08:54 15 10 Mostly Clear FEW034 76 63     64%   76 29.82 29.8      
Jun 10 07:54 11 10 Clear CLR 73 63     71%   73 29.83 29.81      
Jun 10 06:54 S 9 10 Clear CLR 70 61     73%     29.83 29.81      
Jun 10 04:54 14 10 Clear CLR 71 58     63%   71 29.81 29.78      
Jun 10 03:54 9 10 Clear CLR 71 58     63%   71 29.8 29.77      
Jun 10 02:54 10 10 Clear CLR 72 59     64%   72 29.8 29.77      
Jun 10 01:54 S 9 10 Clear CLR 73 60     64%   73 29.8 29.77      
Jun 10 00:54 10 10 Clear CLR 73 59     61%   73 29.81 29.78      
Jun 09 23:54 11 10 Clear CLR 75 59     57%   75 29.81 29.78      
Jun 09 22:54 S 11 10 Clear CLR 76 60     58%   76 29.82 29.79      
Jun 09 21:54 S 13 10 Clear CLR 78 60     54%   78 29.8 29.78      
Jun 09 20:54 S 14 10 Clear CLR 80 59     49%   81 29.79 29.77      
Jun 09 19:54 S 11 10 Clear CLR 82 59     46%   82 29.8 29.77      
Jun 09 18:54 14 10 Clear CLR 84 59     43%   84 29.8 29.78      
Jun 09 17:54 S 14 10 Clear CLR 85 58     40%   84 29.8 29.78      
Jun 09 16:54 S 13 10 Clear CLR 86 58     39%   85 29.81 29.79      
Jun 09 15:54 S 13 10 Clear CLR 86 58     39%   85 29.83 29.8      
Jun 09 13:54 13 10 Clear CLR 85 57     39%   84 29.87 29.84      
Jun 09 12:54 8 10 Clear CLR 84 55     37%   83 29.88 29.86      
Jun 09 11:54 8 10 Clear CLR 82 57     43%   82 29.9 29.88      
Jun 09 09:54 11 10 Clear CLR 78 56     47%   78 29.93 29.9      
Jun 09 08:54 10 10 Clear CLR 75 56     52%   75 29.93 29.91      
Jun 09 07:54 6 10 Clear CLR 71 56     59%   71 29.92 29.9      
Jun 09 06:54 5 10 Clear CLR 66 55     68%     29.91 29.89      
Jun 09 04:54 8 10 Clear CLR 64 53     67%     29.87 29.85      
Jun 09 03:54 7 10 Clear CLR 63 53     70%     29.87 29.85      
Jun 09 02:54 7 10 Clear   66 52     61%     29.88 29.85      
Jun 09 01:54 8 10 Clear CLR 67 54     63%     29.88 29.86      
Jun 09 00:54 8 10 Clear CLR 68 54     61%     29.89 29.87      
Jun 08 23:54 7 10 Clear CLR 70 54     57%     29.9 29.88      
Jun 08 22:54 S 8 10 Clear CLR 71 54     55%   70 29.91 29.88      
Jun 08 21:54 S 5 10 Clear CLR 75 52     45%   74 29.9        
Jun 08 19:54 7 10 Clear CLR 79 51     38%   78 29.89 29.87      
Jun 08 18:54 W 7 10 Clear CLR 81 49     33%   80 29.89 29.87      
Jun 08 16:54 Calm 10 Clear CLR 83 49     31%   81 29.92 29.9      
Jun 08 15:54 5 10 Clear CLR 83 51     33%   81 29.94 29.92      
Jun 08 14:54 7 10 Clear CLR 83 52     34%   82 29.96 29.94      
Jun 08 13:54 5 10 Clear CLR 82 50     33%   81 29.98 29.96      
Jun 08 12:54 9 10 Clear CLR 81 51     35%   80 30.01 29.98      
Jun 08 11:54 W 6 10 Clear CLR 80 51     36%   79 30.02 30      
Jun 08 10:54   10 Clear CLR 79 51     38%   78 30.04 30.02      
Notice The following observation data may not be complete
Jun 08 09:54     Clear            %     30.05        
Jun 08 08:54 5 10 Clear CLR 73 55     53%   73 30.06 30.04      
Jun 08 07:54 Calm 10 Clear CLR 70 56     61%     30.06 30.04      
Jun 08 06:54   10 Clear CLR 65 57     76%     30.05 30.03      
Jun 08 05:54 Calm 10 Clear CLR 63 54     72%     30.04 30.02      
Jun 08 03:54 N 3 10 Clear CLR 64 54     70%     30.04 30.02      
Jun 08 02:54 5 10 Clear CLR 65 56     73%     30.03 30.01      
Jun 08 01:54 Calm 10 Clear CLR 66 57     73%     30.04 30.02      
Jun 08 00:54 Calm 10 Clear CLR 67 56     68%     30.06 30.04      
Jun 07 23:54 3 10 Clear CLR 69 56     63%     30.05 30.03      
Jun 07 22:54 Calm 10 Clear CLR 72 56     57%   72 30.05 30.03      
Jun 07 21:54 3 10 Clear CLR 74 51     45%   73 30.04 30.02      
Jun 07 20:54 NE 6 10 Clear CLR 74 49     41%   73 30.02 30      
Jun 07 19:54 8 10 Clear CLR 77 48     36%   76 30.02 30      
Jun 07 18:54 8 10 Clear CLR 80 48     33%   79 30.02 30.01      
Jun 07 17:54 NNW 5 10 Clear CLR 82 49     32%   81 30.04 30.02      
Jun 07 16:54   10 Clear CLR 81 46     29%   80 30.05 30.03      
Jun 07 15:58 E 7 10 Clear CLR 82 48     31%   81 30.06        
Jun 07 15:54   10 Clear CLR 82 48     31%   81 30.06 30.03      
Jun 07 14:54 3 10 Clear CLR 81 47     30%   80 30.07 30.05      
Jun 07 13:54 7 10 Clear CLR 81 47     30%   80 30.08 30.06      
Jun 07 12:54 E 7 10 Clear CLR 80 48     33%   79 30.09 30.06      
Jun 07 11:54 9 10 Clear CLR 79 45     30%   78 30.1 30.08      
Jun 07 10:54 3 10 Clear CLR 78 48     35%   77 30.11 30.09      
Jun 07 09:54 Calm 10 Clear CLR 74 51     45%   73 30.12 30.09      
Jun 07 08:54 3 10 Clear CLR 71 52     51%   70 30.12 30.09      
Jun 07 07:54 Calm 10 Clear CLR 64 57     78%     30.11 30.09      
Jun 06 13:54 NE 13 10 Clear CLR 81 50     34%   80 30.01 29.98      
Jun 06 12:54 14 10 Clear CLR 80 50     35%   79 30.01 29.99      
Jun 06 11:54 NE 13 10 Clear CLR 79 52     39%   78 30.02 29.99      
Jun 06 10:54 11 10 Clear CLR 76 53     45%   75 30.02 29.99      
Jun 06 09:54 E 10 10 Clear CLR 74 53     48%   73 30.02 30      
Jun 06 08:54 E 13 10 Clear CLR 72 52     49%   71 30.02 30      
Jun 06 07:54 11 10 Clear CLR 69 55     61%     30 29.98      
Jun 06 06:54 10 10 Clear CLR 67 56     68%     29.99 29.96      
Jun 06 05:54 6 10 Clear CLR 66 57     73%     29.97 29.95      
Jun 06 04:54 7 10 Clear CLR 67 57     71%     29.95 29.93      
Jun 06 03:54 NE 6 10 Clear CLR 68 57     68%     29.93 29.91      
Jun 06 02:54 8 10 Clear CLR 71 56     59%   71 29.93 29.9      
Jun 06 01:54 9 10 Clear CLR 72 55     55%   71 29.91 29.89      
Jun 06 00:54 6 10 Clear CLR 72 54     53%   71 29.9 29.87      
Jun 05 23:54 6 10 Clear CLR 75 53     46%   74 29.89 29.86      
Jun 05 22:54 E 5 10 Clear CLR 77 53     43%   76 29.88 29.85      
Jun 05 21:54 NE 7 10 Clear   77 54     45%   77 29.86 29.83      
Jun 05 20:54 NE 7 10 Clear CLR 80 53     39%   80 29.83 29.81      
Jun 05 19:54 NE 8 10 Clear CLR 85 53     34%   83 29.81 29.79      
Jun 05 18:54 NE 11 10 Clear CLR 89 51     27%   86 29.8 29.78      
Jun 05 17:54 NE 14 10 Clear CLR 91 50     25%   88 29.79 29.77      
Jun 05 16:54 15 10 Mostly Clear FEW100 92 53     27%   89 29.78 29.76      
Jun 05 15:54 N 6 10 Mostly Clear FEW095 93 57     30%   92 29.79 29.76      
Jun 05 14:54 N 13 10 Partly Cloudy SCT095 91 59     34%   90 29.8 29.77      
Jun 05 13:54 7 10 Clear CLR 92 60     35%   92 29.81 29.79      
Jun 05 12:54 5 10 Clear CLR 90 65     44%   92 29.83 29.8      
Jun 05 11:54 N 7 10 Clear CLR 88 68     52%   92 29.84 29.81      
Jun 05 10:54 5 10 Clear CLR 85 68     57%   88 29.84 29.82      
Jun 05 09:54 N 3 10 Clear CLR 82 70     67%   86 29.85 29.83      
Jun 05 08:54 Calm 10 Clear CLR 76 70     82%   77 29.86 29.83      
Jun 05 07:54 Calm 10 Clear CLR 73 70     90%   74 29.85 29.83      
Jun 05 06:54 Calm 6 Fog/Mist CLR 68 68     100%     29.84 29.82      
Jun 05 05:54 NNW 3 3 Fog/Mist CLR 66 66     100%     29.83 29.81      
Jun 05 05:52 Calm 3 Fog/Mist CLR 66 66     100%     29.83        
Jun 05 05:44 Calm 2 Fog/Mist FEW003 67 67     100%     29.83        
Jun 05 05:42 Calm 1 Fog/Mist VV003 67 67     100%     29.83        
Jun 05 05:19 Calm 0.5 Fog VV003 66 66     100%     29.82        
Jun 05 05:15 Calm 1 Fog/Mist VV002 67 67     100%     29.82        
Jun 05 04:54 Calm 0.25 Fog VV002 67 67     100%     29.82 29.8      
Jun 05 03:54 Calm 0.25 Fog VV001 67 67     100%     29.81 29.79      
Jun 05 02:54 Calm 0.5 Fog VV002 68 68     100%     29.81 29.79      
Jun 05 02:49 Calm 0.75 Fog/Mist VV001 68 68     100%     29.81        
Jun 05 02:29 Calm 1.75 Fog/Mist FEW005 69 69     100%     29.81        
Jun 05 02:11 Calm 1.75 Fog/Mist CLR 70 69     97%     29.82        
Jun 05 01:54 Calm 4 Fog/Mist CLR 70 69     97%     29.82 29.8      
Jun 05 01:03 Calm 3 Fog/Mist CLR 70 70     100%     29.82        
Jun 05 00:54 Calm 1 Fog/Mist CLR 70 69     97%     29.82 29.8      
Jun 05 00:50 Calm 1.75 Fog/Mist CLR 70 70     100%     29.82        
Jun 05 00:40 Calm 3 Clear   70 70     100%     29.82        
Jun 05 00:33 Calm 1 Clear   70 70     100%     29.82        
Jun 05 00:25 Calm 2.5 Clear   71 70     96%   72 29.83        
Jun 04 23:54 Calm 5 Clear   71 71     100%   73 29.83 29.81      
Jun 04 22:54 Calm 6 Fog/Mist CLR 72 71     97%   73 29.84 29.82      
Jun 04 21:54 Calm 10 Clear CLR 73 72     96%   75 29.83 29.8      
Jun 04 20:54 Calm 10 Clear CLR 77 71     82%   78 29.82 29.8      
Jun 04 19:54 NNW 3 10 Clear CLR 78 71     79%   79 29.81 29.79      
Jun 04 18:54 3 10 Clear CLR 80 71     74%   84 29.81 29.78     0
Jun 04 16:54 Calm 10 Clear CLR 79 71     77%   82 29.83 29.8      
Jun 04 15:54 Calm 10 Clear CLR 77 72     84%   78 29.84 29.82   0  
Jun 04 14:54 3 10 Mostly Clear FEW032 76 71     85%   77 29.85 29.83 0    
Jun 04 14:40 3 10 Mostly Cloudy SCT038 BKN055 75 70     84%   76 29.85   0    
Jun 04 14:13 Calm 7 Light Rain FEW060 BKN090 OVC110 75 71     88%   76 29.86   0    
Jun 04 13:54 Calm 10 Light Rain OVC110 74 69     85%   75 29.87 29.84 0    
Jun 04 13:43 Calm 10 Light Rain BKN120 74 68     82%   75 29.87   0    
Jun 04 12:54 7 5 Thunderstorms and Rain and Fog/Mist SCT060 SCT075 OVC090 72 68     87%   73 29.89 29.87 1   2
Jun 04 12:44   5 Thunderstorms and Rain and Fog/Mist SCT045 BKN070 OVC080 72 68     87%   73 29.89   1    
Jun 04 12:37 N 9 2.5 Thunderstorms and Rain and Fog/Mist SCT031 BKN065 OVC075 72 68     87%   73 29.89   1    
Jun 04 12:26   1 Thunderstorms and Heavy Rain BKN025 BKN042 OVC070 72 66     82%   73 29.89   1    
Jun 04 12:07 6 0.5 Thunderstorms and Heavy Rain BKN017 BKN024 OVC042 73 66     79%   74 29.91   0    
Notice The following observation data may not be complete
Jun 04 11:54 SSE 13 0.5 Thunderstorms and Heavy Rain and Fog SCT013 BKN023 OVC034   67      %     29.92 29.9 0    
Jun 04 11:48   1.75 Thunderstorms and Rain SCT023 BKN032 OVC042 75 68     78%   76 29.91   0    
Jun 04 11:26 5 10 Thunderstorms BKN034 BKN043 OVC050 80 68     67%   83 29.89        
Jun 04 11:09 NE 5 10 Mostly Cloudy SCT028 BKN040 BKN050 81 69     67%   84 29.89        
Jun 04 10:54 3 10 Mostly Cloudy BKN027 BKN033 BKN047 80 70     71%   83 29.89 29.86      
Jun 04 10:50 Calm 10 Mostly Cloudy BKN027 BKN035 81 70     70%   84 29.89        
Jun 04 09:54 Calm 10 Clear CLR 80 69     69%   83 29.91 29.88      
Jun 04 08:54 Calm 10 Clear CLR 78 70     76%   79 29.91 29.89      
Jun 04 07:54 3 10 Mostly Cloudy BKN080 75 69     82%   76 29.92 29.89      
Jun 04 06:54 Calm 10 Clear CLR 73 69     87%   74 29.92 29.89      
Jun 04 05:54 Calm 10 Mostly Cloudy BKN100 72 68     87%   73 29.91 29.89      
Jun 04 04:54 3 10 Mostly Clear FEW110 74 68     82%   75 29.91 29.88      
Jun 04 03:54 Calm 10 Clear CLR 74 67     79%   75 29.91 29.88      
Jun 04 02:54 Calm 10 Clear CLR 75 68     79%   76 29.92 29.89      
Jun 04 01:54 Calm 10 Mostly Clear FEW120 75 67     76%   76 29.92 29.9      
Jun 04 00:54 3 10 Mostly Clear FEW120 76 67     74%   77 29.94 29.91      
Jun 03 23:54 Calm 10 Clear CLR 78 66     67%   79 29.95 29.92      
Jun 03 22:54 SSE 5 10 Clear CLR 79 67     67%   80 29.95 29.92      
Jun 03 21:54 Calm 10 Clear CLR 81 64     56%   83 29.95 29.92      
Jun 03 20:54 7 10 Clear CLR 82 63     53%   83 29.93 29.9      
Jun 03 19:54 7 10 Clear CLR 83 63     51%   84 29.92 29.89      
Jun 03 18:54 SSE 6 10 Clear CLR 83 64     53%   84 29.91 29.89      
Jun 03 17:54 SSE 9 10 Clear CLR 85 63     48%   86 29.92 29.89      
Jun 03 16:54 6 10 Mostly Clear FEW055 85 64     50%   86 29.93 29.9      
Jun 03 15:54 SSE 5 10 Partly Cloudy SCT055 SCT070 85 65     51%   87 29.94 29.92      
Jun 03 14:54 7 10 Mostly Clear FEW080 86 64     48%   87 29.97 29.94      
Jun 03 13:54 6 10 Mostly Clear FEW050 85 64     50%   86 29.98 29.96      
Jun 03 12:54 S 10 10 Partly Cloudy SCT055 85 64     50%   86 30.01 29.98      
Jun 03 11:54 S 6 10 Partly Cloudy SCT046 84 64     51%   85 30.01 29.98      
Jun 03 10:54 6 10 Clear CLR 83 66     57%   85 30.01 29.98      
Jun 03 09:54 SSE 5 10 Clear CLR 81 65     58%   83 30.02 30      
Jun 03 08:54 Calm 10 Clear CLR 77 67     71%   78 30.03 30      
Jun 03 07:54 3 10 Clear CLR 72 67     84%   73 30.03 30      
Jun 03 06:54 3 10 Clear CLR 69 66     90%     30.02 30      
Jun 03 05:54 3 10 Clear CLR 68 66     93%     30.01 29.99      
Jun 03 04:54 Calm 10 Clear CLR 69 66     90%     30.01 29.98      
Jun 03 03:54 Calm 10 Clear CLR 70 66     87%     30.01 29.98      
Jun 03 02:54 Calm 10 Clear CLR 70 66     87%     30.01 29.98      
Jun 03 01:54 3 10 Clear CLR 71 66     84%   72 30 29.98      
Jun 03 00:54 Calm 10 Clear CLR 74 66     76%   75 30 29.97      
Jun 02 23:54 Calm 10 Clear CLR 76 65     69%   76 29.99 29.96      
Jun 02 22:54 5 10 Clear CLR 77 65     66%   78 29.99 29.96      
Jun 02 21:54 S 5 10 Clear CLR 77 65     66%   78 29.97 29.95      
Jun 02 20:54 S 9 10 Clear CLR 79 64     60%   79 29.96 29.94      
Jun 02 19:54 S 7 10 Clear CLR 81 64     56%   83 29.96 29.94      
Jun 02 18:54 S 10 10 Mostly Clear FEW055 82 63     53%   83 29.96 29.94      
Jun 02 17:54 S 11 10 Partly Cloudy SCT055 83 64     53%   84 29.98 29.95      
Jun 02 16:54 S 9 10 Mostly Clear FEW060 86 64     48%   87 29.99 29.96      
Jun 02 15:54 SSE 8 10 Mostly Clear FEW055 86 63     46%   87 29.99 29.97      
Jun 02 14:54 6 10 Clear CLR 86 62     45%   87 30.01 29.98      
Jun 02 13:54 7 10 Partly Cloudy SCT050 85 64     50%   86 30.02 30      
Jun 02 12:54 S 8 10 Mostly Clear FEW047 84 65     53%   86 30.04 30.01      
Jun 02 11:54 9 10 Clear CLR 83 65     55%   85 30.04 30.02      
Jun 02 10:54 3 10 Clear CLR 81 66     61%   83 30.04 30.02      
Jun 02 09:54 Calm 10 Clear CLR 78 65     64%   79 30.06 30.03      
Jun 02 08:54 Calm 10 Mostly Clear FEW110 75 65     71%   76 30.06 30.03      
Jun 02 07:54 Calm 10 Cloudy OVC120 73 65     76%   74 30.05 30.03      
Jun 02 06:54 3 10 Mostly Cloudy BKN110 71 66     84%   72 30.04 30.02      
Jun 02 05:54 Calm 10 Clear CLR 70 63     78%     30.02 30      
Jun 02 04:54 S 3 10 Partly Cloudy SCT110 71 63     76%   71 30.02 30      
Jun 02 03:54 Calm 10 Mostly Cloudy BKN100 71 64     79%   72 30.02 29.99      
Jun 02 02:54 S 3 10 Cloudy OVC100 70 65     84%     30 29.98      
Jun 02 01:54 S 7 10 Clear CLR 72 65     79%   73 30 29.98      
Jun 02 00:54 S 10 10 Cloudy OVC110 73 65     76%   74 30 29.98     0
Jun 01 23:54 SSE 3 10 Clear CLR 75 65     71%   76 30 29.98      
Jun 01 22:54 S 6 10 Partly Cloudy SCT110 74 65     74%   74 29.99 29.97      
Jun 01 21:54 SSE 5 10 Mostly Clear FEW110 75 63     66%   75 29.99 29.97   0  
Jun 01 20:54 S 6 10 Mostly Clear FEW120 75 63     66%   75 29.99 29.97 0    
Jun 01 19:54 S 7 10 Light Rain OVC110 76 63     64%   76 29.99 29.97 0    
Jun 01 18:54 S 6 10 Partly Cloudy SCT120 78 62     58%   78 29.99 29.98      
Jun 01 17:54 SSE 9 10 Clear CLR 80 62     54%   81 30 29.98      
Jun 01 16:54 S 8 10 Mostly Clear FEW044 78 64     62%   79 30.01 29.99      
Jun 01 15:54 5 10 Mostly Cloudy SCT045 BKN055 79 64     60%   79 30.03 30.01      
Jun 01 14:54 S 6 10 Partly Cloudy FEW043 SCT110 79 62     56%   79 30.04 30.02      
Jun 01 13:54 7 10 Mostly Clear FEW037 79 63     58%   79 30.04 30.02      
Jun 01 12:54 9 10 Mostly Clear FEW030 78 66     67%   79 30.05 30.03     0
Jun 01 11:54 7 10 Clear CLR 77 61     58%   77 30.06 30.04      
Jun 01 10:54 E 5 10 Clear CLR 74 61     64%   74 30.07 30.05      
Jun 01 09:54 5 10 Clear CLR 70 63     78%     30.08 30.06   0  
Jun 01 08:54 Calm 10 Clear CLR 69 62     78%     30.09 30.07 0    
Jun 01 07:54 6 10 Light Rain FEW060 BKN095 OVC120 66 62     87%     30.1 30.08 0    
Jun 01 06:54 9 10 Light Rain OVC100 65 61     87%     30.11 30.09 0   0
Jun 01 05:54 15 8 Light Rain BKN085 OVC100 65 61     87%     30.07 30.05 0    
Jun 01 04:54 Calm 6 Light Rain and Fog/Mist OVC095 65 63     93%     30.08 30.06 0    
Jun 01 04:07 5 5 Light Rain and Fog/Mist SCT055 BKN090 OVC110 66 63     90%     30.05   0    
Jun 01 03:54   4 Heavy Rain and Fog/Mist SCT055 SCT070 OVC090 66 62     87%     30.04 30.02 0 0  
Jun 01 02:54 5 10 Cloudy OVC110 68 61     78%     30.07 30.05      
Jun 01 01:54 6 10 Mostly Cloudy BKN110 68 61     78%     30.05 30.03      
Jun 01 00:54 Calm 10 Clear CLR 67 63     87%     30.06 30.04      
May 31 23:54 5 10 Clear CLR 68 63     84%     30.06 30.04      
May 31 22:54 S 5 10 Clear CLR 69 62     78%     30.06 30.03      
May 31 20:54 13 10 Clear CLR 72 62     71%   72 30.03 30.02      
May 31 19:54 S 6 10 Clear CLR 75 61     62%   75 30.01 29.99      
May 31 18:54 S 7 10 Clear CLR 78 55     45%   78 30.01 29.99     0
May 31 17:54 7 10 Clear CLR 81 49     33%   80 30.02 30      
May 31 16:54 6 10 Clear CLR 79 49     35%   78 30.03 30.01      
May 31 15:54 8 10 Clear CLR 80 52     38%   80 30.03 30.01   0  
May 31 14:54 E 9 10 Mostly Cloudy FEW039 FEW090 BKN110 76 53     45%   75 30.02 30 0    
May 31 13:54 5 10 Clear CLR 79 49     35%   78 30.08 30.06      
May 31 12:54 8 10 Clear   78 52     40%   77 30.07 30.05      
May 31 10:54 E 9 10 Clear CLR 76 58     54%   76 30.06 30.05      
May 31 09:54 Calm 10 Clear CLR 73 61     66%   73 30.07 30.05      
May 31 08:54 3 10 Clear CLR 70 60     71%     30.08 30.06      
May 31 07:54   10 Clear CLR 65 60     84%     30.06 30.04      
May 31 06:54 Calm 10 Clear CLR 61 58     90%     30.06 30.04      
May 31 05:54 Calm 10 Clear CLR 59 57     93%     30.04 30.03      
May 31 04:54 Calm 10 Clear CLR 59 57     93%     30.03 30.01      
May 31 03:54 Calm 10 Clear CLR 62 58     86%     30.01 29.99      
May 31 02:54 5 10 Clear CLR 62 58     86%     30.01 29.99      
May 31 00:54 S 6 10 Clear CLR 64 58     81%     30.01 29.99      
May 30 23:54 S 8 10 Clear CLR 65 58     78%     30 29.98      
May 30 22:54 S 9 10 Clear CLR 67 61     81%     30 29.98      
May 30 21:54 5 10 Clear CLR 70 57     63%     29.98 29.96      
May 30 20:54 3 10 Clear CLR 76 48     37%   75 29.97 29.95      
May 30 19:54 N 8 10 Clear CLR 79 52     39%   78 29.95 29.93      
May 30 18:54 8 10 Clear CLR 82 51     34%   81 29.94 29.93      
May 30 17:54 7 10 Partly Cloudy SCT070 83 56     40%   82 29.95 29.93      
May 30 16:54 W 8 10 Mostly Clear FEW120 82 55     40%   81 29.97 29.95      
May 30 15:54 11 10 Mostly Clear FEW075 81 52     37%   80 29.99 29.97      
May 30 14:54 7 10 Clear CLR 80 50     35%   79 30.01 29.99      
May 30 13:54   10 Clear CLR 80 48     33%   79 30.03 30.01      
May 30 12:54 10 10 Clear CLR 80 48     33%   79 30.05 30.03      
May 30 11:54 7 10 Clear CLR 77 44     31%   76 30.06 30.04      
May 30 10:54 S 8 10 Clear   75 49     40%   74 30.07 30.06      
May 30 09:54 8 10 Cloudy OVC110 71 49     45%   70 30.09 30.07      
May 30 08:54 Calm 10 Partly Cloudy SCT100 67 55     66%     30.09 30.08      
May 30 06:54   10 Clear CLR 57 52     83%     30.08 30.06      
May 30 05:54 Calm 10 Clear CLR 55 50     83%     30.08 30.06      
May 30 04:54 3 10 Clear CLR 56 50     80%     30.06 30.05      
May 30 03:54 Calm 10 Clear CLR 58 52     81%     30.06 30.04      
May 30 02:54 Calm 10 Clear CLR 59 52     78%     30.06 30.04      
May 30 01:54 Calm 10 Clear CLR 61 49     64%     30.06 30.05      
May 30 00:54 Calm 10 Clear CLR 66 47     50%     30.05 30.03      
May 29 23:54 Calm 10 Clear CLR 65 48     54%     30.04 30.03      
May 29 22:54 N 6 10 Clear   68 49     50%     30.02 30      
May 29 19:54 W 5 10 Clear CLR 77 46     33%   76 29.96 29.94      
May 29 18:54 10 10 Clear CLR 80 46     30%   79 29.96 29.94      
May 29 17:54 9 10 Clear CLR 81 45     28%   80 29.96 29.94      
May 29 16:54 5 10 Mostly Clear FEW085 81 46     29%   80 29.97 29.96